RH
75 76 79 80 76 71 74 72 68 71 73 74 75 78 80 84 82 81 68 64 57 52 48 53 60 58 51 57 57 56 57 59 55 56 61 66 64 67 67 68 63 64 58 56 62 65 68 71 75
82 83 83 80 71 71 67 64 69 65 77 70 72 81 80 83 80 80 80 76 68 60 57 60 59 57 49 51 54 57 59 58 58 53 55 57 64 67 69 70 71 76 72 56 57 62 69 69 70
83 83 84 79 66 66 65 61 57 61 64 64 70 74 78 83 83 82 76 68 65 67 66 60 59 51 52 53 52 51 50 54 59 56 51 54 62 68 70 74 81 87 84 74 60 55 62 65 66
81 77 78 67 55 48 53 63 68 69 64 54 62 71 75 86 84 81 77 65 60 59 63 57 56 49 53 53 45 48 48 48 53 54 57 60 63 62 66 71 75 84 87 82 73 58 56 71 80
75 71 64 62 56 51 50 56 66 67 60 58 53 63 71 75 78 78 75 69 55 53 58 55 53 49 49 50 48 48 45 43 45 49 53 56 60 63 66 68 67 74 84 81 77 73 60 68 74
71 63 63 55 57 58 58 59 60 63 67 59 58 53 59 70 70 74 76 71 59 54 55 54 53 53 55 52 50 47 45 42 46 48 54 60 66 69 69 67 64 65 73 80 83 82 72 61 66
68 68 68 61 59 63 64 68 65 64 68 63 59 54 54 61 72 75 73 73 72 57 56 55 57 57 57 56 52 47 44 45 48 53 63 73 76 78 84 75 63 61 68 73 78 81 79 74 67
74 70 68 66 59 60 61 64 66 66 68 63 63 66 63 60 67 77 70 68 67 67 59 59 63 60 58 53 46 45 45 46 49 60 79 87 88 86 83 89 75 68 64 69 73 74 77 80 82
72 66 69 66 62 69 62 63 67 67 70 65 64 64 70 67 67 74 72 68 66 66 60 66 64 61 56 52 46 43 46 53 59 70 82 89 92 91 95 95 91 84 75 65 69 72 74 82 84
62 70 70 69 74 64 58 58 62 66 66 73 68 65 71 70 68 70 73 71 70 67 63 64 61 60 54 53 45 48 56 59 70 77 86 88 94 95 96 97 94 89 85 71 66 71 72 78 83
71 73 70 66 62 58 57 56 62 64 62 67 60 65 68 68 71 77 75 77 75 74 70 68 64 60 55 52 50 54 60 63 68 78 87 89 94 94 96 96 99 93 85 80 70 69 69 73 80
77 76 74 68 59 59 62 61 64 58 62 61 61 62 68 71 72 80 81 79 79 76 73 70 68 61 57 53 53 58 61 64 69 76 83 88 89 90 91 92 92 89 84 79 74 68 66 80 86
73 70 67 69 66 65 65 62 59 59 61 60 63 62 66 75 71 65 70 76 77 79 75 72 62 61 60 58 56 59 57 65 76 73 80 82 83 86 86 86 86 81 75 76 76 69 60 76 89
77 74 68 70 64 62 58 60 56 59 61 61 61 59 71 79 78 71 70 69 76 73 69 62 59 57 58 54 54 56 55 65 67 68 75 77 79 80 85 82 78 73 74 74 72 63 59 66 83
73 70 72 69 65 62 55 58 58 58 59 61 60 66 73 77 79 75 71 69 72 69 69 60 55 50 50 52 53 55 56 62 70 68 70 74 74 73 80 79 75 70 70 67 62 57 57 67 73
78 75 76 72 67 58 54 60 60 55 59 64 66 64 67 74 72 73 74 71 73 70 63 59 51 48 50 52 52 59 60 60 73 73 62 69 67 67 77 78 75 74 69 64 53 54 57 66 67
76 72 74 70 69 61 54 58 58 52 54 59 64 63 67 72 70 68 66 65 64 61 63 59 54 46 50 49 49 53 58 59 69 76 69 63 56 58 71 73 78 74 70 65 58 55 53 59 63
62 68 69 70 66 60 55 57 58 54 52 52 55 59 61 66 66 66 62 63 61 61 59 56 50 44 49 50 48 49 51 57 61 70 68 63 48 51 60 66 72 72 69 64 58 53 57 60 67
62 63 61 66 70 62 56 52 54 55 52 54 58 58 59 59 58 59 57 56 57 58 54 53 49 46 49 49 47 46 46 50 56 60 71 59 46 49 47 55 60 64 67 65 59 57 57 63 69
61 58 56 62 66 58 52 50 49 48 52 54 59 59 55 58 57 56 53 55 51 51 51 52 49 47 47 47 45 49 47 45 48 54 60 51 42 39 41 50 55 61 62 64 63 60 59 60 72
56 57 56 61 63 56 57 59 56 46 46 50 56 59 58 59 55 56 53 51 48 48 51 51 48 46 45 46 44 47 47 46 45 51 54 53 45 44 37 47 54 59 60 65 68 63 60 59 65
57 52 52 59 63 60 62 66 60 58 52 41 44 54 56 58 57 53 50 50 44 48 51 51 46 41 41 43 41 41 44 42 48 53 57 60 56 46 39 39 43 48 55 57 64 65 62 61 65
49 52 54 61 60 58 53 58 47 51 53 53 46 47 52 56 57 55 50 45 46 49 54 54 54 46 42 41 40 39 40 38 43 54 62 65 72 65 37 36 37 39 44 47 51 57 65 71 61
52 54 58 63 63 62 51 51 46 45 43 45 51 48 44 51 55 58 55 48 47 50 53 56 58 51 46 44 40 40 40 39 40 43 49 58 64 61 51 40 42 39 36 42 43 44 47 56 62
49 52 63 65 66 59 62 54 46 41 40 43 50 54 54 50 48 53 58 52 49 52 52 60 56 53 52 47 42 40 38 37 36 37 40 50 59 65 60 57 58 47 39 40 44 44 43 44 53
53 48 48 41 57 54 55 49 38 40 40 36 42 53 59 58 59 53 56 55 51 53 54 58 57 52 52 49 44 40 39 37 37 35 36 40 45 53 59 57 61 58 45 43 50 52 54 46 48
50 48 45 54 57 53 54 47 38 40 40 38 38 48 58 61 66 65 54 55 53 56 58 55 54 54 54 50 44 39 38 38 38 38 37 35 37 41 48 53 55 54 48 48 47 50 51 56 47
42 44 46 47 42 44 51 50 48 37 39 42 42 42 49 60 67 62 62 62 58 52 53 52 57 50 51 51 45 41 42 41 41 41 41 41 40 41 42 48 52 57 54 50 43 44 48 50 47
41 42 43 44 46 48 47 45 37 35 36 39 40 42 44 61 65 67 65 56 50 50 48 47 52 51 52 54 49 45 46 47 49 50 49 50 50 50 48 46 44 44 50 53 51 47 52 53 54
34 35 36 39 38 48 41 41 35 36 35 37 37 38 40 44 59 65 57 53 52 49 47 48 49 49 49 56 59 58 53 51 51 52 52 54 56 58 58 55 58 63 66 59 60 55 60 63 63